Location: Lomond
(50.3500°N, 112.6333°W)
Time: 05:01:00
(UTC+00:00)

Tiangong - Visible Passes

Search period start: 29 May 2023 00:00
Search period end: 08 June 2023 00:00
Orbit: 387 x 392 km, 41.5° (Epoch: 28 May)

Date Brightness Start Highest point End Pass type
(mag) Time Alt. Az. Time Alt. Az. Time Alt. Az.
04 Jun 0.3 10:30:12 10° S 10:31:22 12° SSE 10:32:33 10° SE visible
06 Jun -0.1 10:10:20 11° SSW 10:11:47 15° SSE 10:13:40 10° SE visible
07 Jun 0.3 09:14:43 11° SSE 09:14:43 11° SSE 09:15:15 10° SE visible
